COSMOS 1275 DEB, 13020

Orbit data source: Space-Track

COSMOS 1275 DEB, 13020 is space debris in LEO originally from a launch on Thu, 04 Jun 1981 UTC launched from the Plesetsk Missile And Space Complex (PKMTR). Debris objects in space refer to the collection of defunct objects orbiting the Earth. Examples of debris include non-operational satellites, rocket bodies, and fragments generated from explosions, collisions, or faulty payload assembly.

Loading next visibility...
Identifier
13020, 1981-053ES
Orbit
LEO
Country
Flag of CISCIS
Related business
Manufacturer
Unknown
Mission
Spacecraft
Bus & Motor
Unknown
Mass
Unknown
Launch date (UTC)
1981-06-04 (45 years ago)
Launch vehicle
Unknown
Launch site
Plesetsk Missile And Space Complex (PKMTR)
Object type
Payload
Rocket body
Debris
Shape & HBR
Unknown shape, 0.1 m
Radar Cross Section
Small (<0.1 m²)

Expand to show TLE details & history
Last TLE update: 15 hours ago

TLE from 15 hours ago
0 COSMOS 1275 DEB
1 13020U 81053ES  26119.45420068  .00000603  00000-0  54459-3 0  9990
2 13020  82.6893 259.3585 0111379 292.4188 131.0599 13.79779054223666
Epoch: 2026-04-29T10:54Z
TLE epoch observation values (Epoch: 2026-04-29T10:54:02.938Z)
Latitude
63.56307°
Longitude
-106.69457°
Altitude
1,029.846 km
Speed
7.316 km/s
True Right ascension
18h 16m 55s
True Declination
63° 25' 51"
Sunlit
Object was in daylight at epoch
Visualization orbit readout
Latitude
Unknown
Longitude
Unknown
Altitude
Unknown
Speed
Unknown
Apparent Right ascension
Unknown
Apparent Declination
Unknown
Sunlit
N/A
Visualization observer readout
Local Sidereal Time
09:37:57
Azimuth
Unknown
Elevation
Unknown
Doppler factor
Unknown
Orbital elements
Apogee altitude
1,043.574 km
Perigee altitude
880.07 km
Semi-major axis
7,339.959 km
Eccentricity
0.01114
Inclination
82.6893°
RAAN
259.3585°
Arg. of periapsis
292.4188°
True anomaly
132.0135°
Mean anomaly
131.0599°
Eccentric anomaly
131.53757°
Mean motion
3.45146 °/min
Orbital period
104.3 mins
BSTAR
0.00054459
Loading maneuver chart data...
Computing Atmospheric mass density...
Loading historical data...
Loading historical data...
Loading historical data...
Loading historical data...
Loading historical data...
Loading historical data...
Loading historical data...

Documentation

Showing up to 5 results
|